Terug naar catalogus

FENGYUN 1C DEB

LostPO
NORAD 46445·DEBRIS·🇨🇳 China

Gelanceerd May 10, 1999 vanaf Taiyuan Satellite Launch Center

Loading…

Volgende Passages (komende 24 uur)

TLE

VerouderdSource: Space-Track

Epoch: Apr 8, 2024, 14:35 UTC

1 46445U 99025EZA 24099.60796937  .00004808  00000-0  28525-2 0  9993
2 46445  98.0172  37.3827 0109085 155.7294 204.9070 14.04987918714801

Volg FENGYUN 1C DEB in realtime met AllMySat

Download on the App Store